Retour au catalogue

STARLINK-36497

ActifCommunicationsVLEO
NORAD 67323·PAYLOAD·🇺🇸 United States

Lancé Jan 4, 2026 depuis Cape Canaveral Space Force Station

Loading…

Prochains Passages (prochaines 24 heures)

TLE

FraisSource: CelesTrak SupGP

Époque: Sep 14, 2026, 21:26 UTC

1 67323C 26002U   26257.89354167 -.00016614  00000+0 -60161-3 0  2579
2 67323  43.0037 336.7575 0001980 275.6087 133.7136 15.27593242    14

Suivez STARLINK-36497 en temps réel avec AllMySat

Download on the App Store